Regional Weather Roundup
Issued by NWS

Home | Current Version | Previous Version | Graphics & Text | Print | Product List | Glossary On
Versions: 1 2 3 4 5 6 7 8 9 10 11 12 13 14 15 16 17 18 19 20 21 22 23 24 25 26 27 28 29 30 31 32 33 34 35 36 37 38 39 40 41 42 43 44 45 46 47 48 49 50
000
ASUS43 KFSD 141510
RWRSD

WEATHER ROUNDUP FOR SOUTH DAKOTA
NATIONAL WEATHER SERVICE SIOUX FALLS SD
1000 AM CDT SUN SEP 14 2014

NOTE: "FAIR" INDICATES FEW OR NO CLOUDS BELOW 12,000 FEET WITH NO
SIGNIFICANT WEATHER AND/OR OBSTRUCTIONS TO VISIBILITY.


SDZ001>005-009-010-012>017-141600-
NORTHWEST AND NORTH CENTRAL SOUTH DAKOTA

CITY           SKY/WX    TMP DP  RH WIND       PRES   REMARKS
BUFFALO          N/A     43  36  76 NE5       30.11R
FAITH            N/A     43  38  82 NE6       30.18S
MOBRIDGE       PTSUNNY   45  40  82 NW3       30.17R
$$

SDZ012>016-024>037-041>051-057-063-072>074-141600-
SOUTHWEST AND SOUTH CENTRAL SOUTH DAKOTA

CITY           SKY/WX    TMP DP  RH WIND       PRES   REMARKS
RAPID CTY ARPT CLOUDY    46  37  71 S3        30.18S
PIERRE         MOSUNNY   50  41  71 NE5       30.18F
CUSTER         CLOUDY    38  33  82 NE6       30.15S
ELLSWORTH AFB  CLOUDY    45  38  78 S5        30.17S
PHILIP         CLOUDY    46  41  82 CALM      30.18F
PINE RIDGE     PTSUNNY   49  38  65 E16       30.15F
WINNER         CLOUDY    50  42  74 CALM      30.19S
$$

SDZ004>011-016>023-039-040-141600-
NORTHEAST SOUTH DAKOTA

CITY           SKY/WX    TMP DP  RH WIND       PRES   REMARKS
ABERDEEN       MOSUNNY   46  41  82 NW8       30.18R
WATERTOWN      PTSUNNY   48  40  73 NW6       30.17R
SISSETON         N/A     52  41  66 NW15      30.13S
$$

SDZ017-020-022-023-036>040-048>070-141600-
SOUTHEAST SOUTH DAKOTA

CITY           SKY/WX    TMP DP  RH WIND       PRES   REMARKS
SIOUX FALLS    MOSUNNY   53  45  74 CALM      30.19R
HURON          MOSUNNY   50  40  68 NW6       30.20S
CHAMBERLAIN    CLOUDY    51  41  69 NE3       30.19S
MITCHELL       MOSUNNY   51  42  71 N3        30.20S
YANKTON        MOSUNNY   52  45  76 N6        30.19S
$$

ABBREVIATIONS USED IN REMARKS
   TC - TEMPERATURE IN CELSIUS
  WCI - WIND CHILL INDEX
   HX - HEAT INDEX
  VSB - VISIBILITY



USA.gov is the U.S. government's official web portal to all federal, state and local government web resources and services.